Houston Hull, TX

1:44 AM CDT on October 23, 2019 (GMT -0500)
Sugar Land Municipal-Hull

Weather History for KSGR - August, 2019

Change the Weather History Date:

Monday, August 26, 2019

  Actual Average Record
Temperature  
Mean Temperature 88 °F -  
Max Temperature 97 °F 92 °F 102 °F (1999)
Min Temperature 80 °F 72 °F 65 °F (1966)
Cooling Degree Days 22    
Growing Degree Days 38 (Base 50)    
Moisture  
Dew Point 79 °F    
Average Humidity 76    
Maximum Humidity 96    
Minimum Humidity 56    
Precipitation  
Precipitation 0.00 in - - ()
Sea Level Pressure  
Sea Level Pressure 29.82 in    
Wind  
Wind Speed 7 mph ()    
Max Wind Speed 15 mph    
Max Gust Speed 21 mph    
Visibility 10.0 miles    
Events      
Averages and records for this station are not official NWS values.
T = Trace of Precipitation, MM = Missing Value Source: Averaged Metar Reports

Daily Weather History Graph

Daily Weather History Graph

Search for Another Location

Airport or City:

Astronomy

Aug. 26, 2019 Rise Set
Actual Time 6:56 AM CDT 7:51 PM CDT
Civil Twilight 6:32 AM CDT 8:16 PM CDT
Nautical Twilight 6:03 AM CDT 8:45 PM CDT
Astronomical Twilight 5:33 AM CDT 9:14 PM CDT
Moon 2:38 AM CDT (8/26) 5:00 PM CDT (8/26)
Length of Visible Light 13h 44m
Length of Day
12h 55m
Waning Crescent, 19% of the Moon is Illuminated
Aug 26
Waning Crescent
Aug 30
New
Sep 5
First Quarter
Sep 13
Full
Sep 21
Last Quarter

Hourly Weather History & Observations

Time (CDT) Temp. Heat Index Dew Point Humidity Pressure Visibility Wind Dir Wind Speed Gust Speed Precip Events Conditions
12:53 AM 80.1 °F 86.7 °F 79.0 °F 96% 29.83 in 10.0 mi SSE 5.8 mph - N/A   Scattered Clouds
1:53 AM 80.1 °F 86.7 °F 79.0 °F 96% 29.82 in 10.0 mi SSE 6.9 mph - N/A   Overcast
2:09 AM 80.1 °F 86.7 °F 79.0 °F 96% 29.82 in 10.0 mi SSE 8.1 mph - N/A   Overcast
2:53 AM 81.0 °F 89.2 °F 79.0 °F 94% 29.82 in 10.0 mi SSE 4.6 mph - N/A   Overcast
3:53 AM - - - N/A% 29.81 in 10.0 mi SSE 4.6 mph - N/A   Mostly Cloudy
4:46 AM - - - N/A% 29.82 in 10.0 mi SSE 3.5 mph - N/A   Mostly Cloudy
4:53 AM - - - N/A% 29.82 in 10.0 mi SSE 3.5 mph - N/A   Mostly Cloudy
5:53 AM - - - N/A% 29.81 in 10.0 mi SSE 4.6 mph - N/A   Clear
6:53 AM - - - N/A% 29.82 in 10.0 mi SSE 4.6 mph - N/A   Clear
7:53 AM - - - N/A% 29.83 in 10.0 mi South 3.5 mph - N/A   Scattered Clouds
8:53 AM 84.9 °F 100.3 °F 81.0 °F 88% 29.84 in 10.0 mi South 9.2 mph - N/A   Partly Cloudy
9:49 AM 87.8 °F 104.9 °F 80.6 °F 79% 29.84 in 10.0 mi SSW 11.5 mph 18.4 mph N/A   Mostly Cloudy
9:53 AM 87.1 °F 103.2 °F 80.1 °F 80% 29.84 in 10.0 mi South 13.8 mph 20.7 mph N/A   Mostly Cloudy
10:30 AM 89.1 °F 104.4 °F 79.0 °F 72% 29.84 in 10.0 mi South 11.5 mph - 0.00 in   Mostly Cloudy
10:53 AM 91.9 °F 107.3 °F 78.1 °F 64% 29.84 in 10.0 mi SSW 12.7 mph - 0.00 in   Mostly Cloudy
11:53 AM 93.0 °F 106.7 °F 77.0 °F 59% 29.84 in 10.0 mi SSW 11.5 mph - N/A   Scattered Clouds
12:53 PM 95.0 °F 109.7 °F 77.0 °F 56% 29.82 in 10.0 mi SW 12.7 mph - N/A   Partly Cloudy
1:53 PM 93.0 °F 108.9 °F 78.1 °F 62% 29.81 in 10.0 mi SSW 13.8 mph 19.6 mph N/A   Mostly Cloudy
2:53 PM 93.9 °F 111.6 °F 79.0 °F 62% 29.79 in 10.0 mi South 10.4 mph 19.6 mph N/A   Mostly Cloudy
3:53 PM 93.9 °F 111.6 °F 79.0 °F 62% 29.77 in 10.0 mi South 13.8 mph 19.6 mph N/A   Mostly Cloudy
4:53 PM 95.0 °F 113.1 °F 79.0 °F 60% 29.76 in 10.0 mi South 15.0 mph - N/A   Mostly Cloudy
5:53 PM 93.0 °F 108.9 °F 78.1 °F 62% 29.76 in 10.0 mi South 13.8 mph - N/A   Partly Cloudy
6:53 PM 91.0 °F 106.2 °F 78.1 °F 66% 29.76 in 10.0 mi South 11.5 mph - N/A   Clear
7:53 PM 88.0 °F 101.3 °F 78.1 °F 72% 29.78 in 10.0 mi South 11.5 mph - N/A   Clear
8:53 PM 84.9 °F 97.5 °F 79.0 °F 82% 29.81 in 10.0 mi South 10.4 mph - N/A   Clear
9:53 PM 84.0 °F 98.1 °F 81.0 °F 90% 29.84 in 10.0 mi South 10.4 mph - N/A   Clear
10:53 PM 84.0 °F 98.1 °F 81.0 °F 90% 29.85 in 10.0 mi SSE 11.5 mph - N/A   Clear
11:53 PM 82.9 °F 94.8 °F 80.1 °F 91% 29.84 in 10.0 mi South 9.2 mph - N/A   Clear